Regional Weather Roundup
Issued by NWS State College, PA

Home | Current Version | Previous Version | Text Only | Print | Product List | Glossary On
Versions: 1 2 3 4 5 6 7 8 9 10 11 12 13 14 15 16 17 18 19 20 21 22 23 24 25 26 27 28 29 30 31 32 33 34 35 36 37 38 39 40 41 42 43 44 45 46 47 48 49 50
036
ASUS41 KCTP 210010
RWRCTP

REGIONAL WEATHER ROUNDUP
NATIONAL WEATHER SERVICE STATE COLLEGE PA
800 PM EDT FRI APR 20 2018

Note: "fair" indicates few or no clouds below 12,000 feet with no
significant weather and/or obstructions to visibility.

* = STATION THAT DOES NOT REPORT PRECIPITATION /E.G. RAIN...SNOW...ETC/
    THUNDER OR FOG.

PAZ002>004-007>009-013>016-020>023-029>032-210100-
WESTERN PENNSYLVANIA

CITY           SKY/WX    TMP DP  RH WIND       PRES   REMARKS
ERIE           FAIR      41  28  60 W7G17     30.44R
MEADVILLE      FAIR      41  22  46 NW7       30.42R
FRANKLIN*      FAIR      41  22  46 NW5       30.40R
NEW CASTLE     FAIR      45  22  40 N8        30.43R
BEAVER COUNTY  CLEAR     45  18  33 N7        30.41R
BUTLER*        FAIR      44  22  41 N3        30.40R
PITTSBURGH INT FAIR      49  18  29 N12       30.39R
PITTSBURGH     FAIR      47  18  31 N7        30.37R
INDIANA*       CLEAR     46  21  36 NW10      30.40R
LATROBE        CLEAR     46  18  31 NW7       30.39R
WASHINGTON CO* FAIR      48  20  32 NW6       30.41R
$$

PAZ004>006-010>012-017>019-024>028-033>037-041-042-045-046-049>053-210100-
CENTRAL PENNSYLVANIA

CITY           SKY/WX    TMP DP  RH WIND       PRES   REMARKS
BRADFORD       FAIR      37  23  56 NW10      30.36R
DUBOIS         FAIR      42  22  44 NW9       30.35R
CLEARFIELD     FAIR      44  22  41 N9G17     30.35R
JOHNSTOWN      FAIR      43  21  41 NW15      30.32R
ALTOONA        FAIR      49  23  36 NW9       30.33R
STATE COLLEGE  CLEAR     46  21  36 NW12      30.34R
WILLIAMSPORT   FAIR      45  22  40 N8        30.35R
SELINSGROVE    FAIR      45  25  45 NE14      30.34R
FT INDIANTOWN  FAIR      47  24  39 N7        30.31R
CAPITAL CITY   FAIR      53  26  35 N9        30.31R
HARRISBURG     FAIR      51  25  36 NE10      30.31R
YORK           FAIR      50  27  40 NW8       30.29R
$$

PAZ038>040-043-044-047-048-054-055-060>062-067>071-210100-
EASTERN PENNSYLVANIA

CITY           SKY/WX    TMP DP  RH WIND       PRES   REMARKS
SCRANTON       FAIR      40  24  53 N13       30.33R
MOUNT POCONO   FAIR      34  23  64 NW15G22   30.27R
ALLENTOWN      FAIR      44  24  45 N8        30.33R
QUAKERTOWN*    CLEAR     43  23  45 N9        30.32R
READING        FAIR      46  26  45 N7        30.32R
LANCASTER      FAIR      47  27  45 N9        30.31R
COATESVILLE    FAIR      46  25  42 N8        30.31R
POTTSTOWN      FAIR      45  23  42 N12       30.33R
BLUE BELL      FAIR      45  27  49 N6        30.33R
DOYLESTOWN     FAIR      44  23  43 N12G20    30.31R
WILLOW GROVE   NOT AVBL
NORTH PHILA    FAIR      48  25  40 N12       30.33R
PHILADELPHIA   FAIR      49  23  36 N13       30.31R
$$




USA.gov is the U.S. government's official web portal to all federal, state and local government web resources and services.